Aeroporto :
LOGIN :

Iscrizione | Disclaimer

   EN    FR    IT 

 










Sommario :    VFR   VFR Marginale   IFR   IFR Intensivo   IFR Molto Intensivo
Visibilità : 
Base nubi : 
>= 8 km
>= 3000ft
5 / 8 km
1000 / 3000 ft
1500m / 5 km
500 / 1000 ft
800 / 1500m
200 / 500 ft
< 800m
< 200 ft
Simboli :   Temporali  Nebbia  Neve Forte  Precipitazioni Forti  Vento > 20 kt
SIGMETs :   Varie  Temporali  Ghiacco  Turbolenza  Onda orograficha  Ceneri Vulcaniche







- Altitudine del aeroporto : 25 ft
- Codice IATA : TPS


LICT - Vincenzo Florio Trapani

ULTIMO METAR :
  • 190055Z 14004KT 9999 SCT022 10/08 Q1014 RMK BKN BKN060 VIS MIN 9999 WIND THR13 14002KT BLU

METARs OBSOLETI :
  • 182355Z 12005KT 9999 SCT022 10/08 Q1015
  • 182255Z 13005KT 9999 FEW018 SCT030 09/07 Q1015 RMK BKN BKN070 VIS MIN 9999 WIND THR13 11004KT BLU

TAF TAF LICT
Valido dal 19 a 00 ore il 19 a 09 ore UTC


182300Z 1900/1909 18007KT 9999 FEW015 SCT030
TEMPO 1900/1906 5000 TSRA FEW018CB BKN020
Nessun NOTAM noto per questo aeroporto.



MetMap, La meteo Aeronautica in un colpo d'occhio ! - Copyright ORBIFLY Dicembre 2007 - Disclaimer

ORBIFLY MET'MAP TEAM :

Programmazione e sviluppo : Alexandra Zaïnal
Concezione e sviluppo : Baudouin d'Aumeries
Co-Programmazione e sviluppo : Marc-Olivier Méhu
Supporto tecnico e logistico : Manuel Goepfert
Aiuto per la traduzione : Arnaldo La Scala

Contatto : metmap@orbifly.com




FONTI E CREDITI :

   NOAA